Regional Weather Roundup
Issued by NWS Cleveland, OH

Home | Current Version | Previous Version | Text Only | Print | Product List | Glossary Off
Versions: 1 2 3 4 5 6 7 8 9 10 11 12 13 14 15 16 17 18 19 20 21 22 23 24 25 26 27 28 29 30 31 32 33 34 35 36 37 38 39 40 41 42 43 44 45 46 47 48 49 50

000
ASUS41 KCLE 300210
RWRCLE
OHIO REGIONAL WEATHER ROUNDUP
NATIONAL WEATHER SERVICE CLEVELAND, OH
1000 PM EDT WED MAR 29 2017

NOTE: "FAIR" INDICATES FEW OR NO CLOUDS BELOW 12,000 FEET WITH NO
SIGNIFICANT WEATHER AND/OR OBSTRUCTIONS TO VISIBILITY.

OHZ001>008-015>018-024>027-034-035-043-044-300300-
   NORTHWEST OHIO

CITY           SKY/WX    TMP DP  RH WIND       PRES   REMARKS
DEFIANCE       MOCLDY    46  33  60 E12       30.13S
FINDLAY        CLOUDY    47  31  53 E15G22    30.11F
TOLEDO EXPRESS CLOUDY    46  32  58 E13G18    30.14F
TOLEDO EXEC    CLOUDY    46  33  60 E13       30.15F
LIMA           PTCLDY    46  33  60 E16       30.10F
$$

OHZ009>014-019>023-028>033-038-089-300300-
   NORTHEAST OHIO

CITY           SKY/WX    TMP DP  RH WIND       PRES   REMARKS
CLE-HOPKINS    CLOUDY    51  29  42 E10       30.20F
CLE-LAKEFRONT  CLOUDY    43  37  79 NE6       30.18F
CUY CO. ARPT   CLOUDY    48  32  53 E8        30.14F
LORAIN-ELYRIA  PTCLDY    47  30  51 E9        30.18F
ASHTABULA      PTCLDY    45  31  58 NE8       30.20F
AKRON-CANTON   MOCLDY    47  30  51 NE10      30.18R
WOOSTER        PTCLDY    45  32  60 E9        30.18R
MANSFIELD      MOCLDY    44  31  60 NE12      30.16R
YOUNGSTOWN     CLOUDY    46  30  53 NE9       30.18F
$$

OHZ042-051>053-060>062-070>072-077>081-300300-
  SOUTHWEST OHIO

CITY           SKY/WX    TMP DP  RH WIND       PRES   REMARKS
CINC-COVINGTON PTCLDY    52  44  74 E10       30.06F
CINC-LUNKEN    PTCLDY    49  47  93 CALM      30.09F
HAMILTON       CLOUDY    53  44  71 E6        30.08F
DAYTON         CLOUDY    52  40  63 E16       30.08F
WRIGHT-PAT AFB CLOUDY    55  41  59 NE13      30.09F
DAYTON GENERAL CLOUDY    56  41  57 E6        30.08S
WILMINGTON     CLOUDY    52  42  69 E6        30.10R
$$

OHZ036-037-039>041-045>050-054>059-063>069-073>076-082>088-300300-
  CENTRAL AND SOUTHEAST OHIO

CITY           SKY/WX    TMP DP  RH WIND       PRES   REMARKS
COLUMBUS       MOCLDY    53  36  52 NE10      30.12R
OSU AIRPORT    CLEAR     52  35  52 E10       30.12S
BOLTON FIELD   PTCLDY    53  36  52 E8        30.13S
RICKENBACK AFB PTCLDY    50  37  61 E10       30.11S
NEWARK         CLEAR     53  33  46 NE6       30.13R
MARION         CLOUDY    46  33  60 E10       30.15F
LANCASTER      CLEAR     52  39  61 NE7       30.13R
ZANESVILLE     CLEAR     53  33  46 NE7       30.14S
NEW PHILLY     NOT AVBL
$$




USA.gov is the U.S. government's official web portal to all federal, state and local government web resources and services.